Meteo pe oră la Dzierzanow

Astăzi, 8 Martie, Luni

Timp Temperatura Precipitaţii Vânt Presiune Umiditate
00:00 -2°C° 0.2 mm 4 m/s 749 mmHg 89%
01:00 -1°C° 0.2 mm 3 m/s 749 mmHg 89%
02:00 -2°C° 0 mm 3 m/s 749 mmHg 88%
03:00 -2°C° 0 mm 3 m/s 749 mmHg 87%
04:00 -3°C° 0 mm 2 m/s 749 mmHg 86%
05:00 -3°C° 0 mm 2 m/s 749 mmHg 83%
06:00 -3°C° 0 mm 2 m/s 750 mmHg 80%
07:00 -3°C° 0 mm 2 m/s 750 mmHg 76%
08:00 -2°C° 0 mm 3 m/s 750 mmHg 67%
09:00 -2°C° 0 mm 4 m/s 751 mmHg 58%
10:00 -1°C° 0 mm 4 m/s 751 mmHg 50%
11:00 0°C° 0 mm 4 m/s 752 mmHg 49%
12:00 0°C° 0 mm 4 m/s 752 mmHg 48%
13:00 +1°C° 0 mm 4 m/s 752 mmHg 48%
14:00 0°C° 0 mm 4 m/s 752 mmHg 49%
15:00 0°C° 0 mm 4 m/s 752 mmHg 51%
16:00 0°C° 0 mm 4 m/s 752 mmHg 52%
17:00 0°C° 0 mm 3 m/s 752 mmHg 57%
18:00 -1°C° 0 mm 3 m/s 753 mmHg 63%
19:00 -2°C° 0 mm 2 m/s 753 mmHg 68%
20:00 -2°C° 0 mm 2 m/s 753 mmHg 71%
21:00 -3°C° 0 mm 2 m/s 753 mmHg 73%
22:00 -3°C° 0 mm 2 m/s 754 mmHg 76%
23:00 -1°C° 0 mm 1 m/s 754 mmHg 76%

Mâine, 9 Martie, Marţi

Timp Temperatura Precipitaţii Vânt Presiune Umiditate
00:00 -1°C° 0 mm 1 m/s 754 mmHg 77%
01:00 -1°C° 0 mm 1 m/s 754 mmHg 77%
02:00 -1°C° 0 mm 1 m/s 753 mmHg 76%
03:00 -2°C° 0 mm 0 m/s 753 mmHg 75%
04:00 -2°C° 0 mm 0 m/s 753 mmHg 74%
05:00 -2°C° 0 mm 0 m/s 753 mmHg 72%
06:00 -1°C° 0 mm 1 m/s 753 mmHg 70%
07:00 -1°C° 0 mm 1 m/s 753 mmHg 69%
08:00 0°C° 0 mm 1 m/s 753 mmHg 65%
09:00 +1°C° 0 mm 1 m/s 753 mmHg 60%
10:00 +1°C° 0 mm 1 m/s 753 mmHg 56%
11:00 +2°C° 0 mm 1 m/s 753 mmHg 53%
12:00 +2°C° 0 mm 1 m/s 753 mmHg 50%
13:00 +3°C° 0 mm 1 m/s 753 mmHg 47%
14:00 +3°C° 0 mm 1 m/s 753 mmHg 47%
15:00 +3°C° 0 mm 1 m/s 752 mmHg 47%
16:00 +3°C° 0 mm 1 m/s 752 mmHg 47%
17:00 +2°C° 0 mm 1 m/s 752 mmHg 52%
18:00 +1°C° 0 mm 1 m/s 752 mmHg 56%
19:00 -2°C° 0 mm 2 m/s 752 mmHg 60%
20:00 -2°C° 0 mm 2 m/s 752 mmHg 61%
21:00 -2°C° 0 mm 2 m/s 752 mmHg 62%
22:00 -3°C° 0 mm 2 m/s 753 mmHg 63%
23:00 -3°C° 0 mm 2 m/s 752 mmHg 65%

Poimâine, 10 Martie, Miercuri

Timp Temperatura Precipitaţii Vânt Presiune Umiditate
00:00 -3°C° 0 mm 2 m/s 752 mmHg 66%
01:00 -3°C° 0 mm 2 m/s 752 mmHg 67%
02:00 -3°C° 0 mm 2 m/s 752 mmHg 68%
03:00 -3°C° 0 mm 2 m/s 752 mmHg 68%
04:00 -3°C° 0 mm 2 m/s 752 mmHg 69%
05:00 -1°C° 0 mm 1 m/s 752 mmHg 68%
06:00 -1°C° 0 mm 1 m/s 752 mmHg 66%
07:00 0°C° 0 mm 1 m/s 752 mmHg 64%
08:00 +1°C° 0 mm 1 m/s 752 mmHg 58%
09:00 +2°C° 0 mm 1 m/s 752 mmHg 51%
10:00 +2°C° 0 mm 2 m/s 752 mmHg 45%
11:00 +3°C° 0 mm 2 m/s 752 mmHg 42%
12:00 +3°C° 0 mm 2 m/s 752 mmHg 39%
13:00 +4°C° 0 mm 2 m/s 752 mmHg 37%
14:00 +5°C° 0 mm 1 m/s 752 mmHg 37%
15:00 +5°C° 0 mm 1 m/s 751 mmHg 38%
16:00 +5°C° 0 mm 1 m/s 751 mmHg 39%
17:00 +3°C° 0 mm 1 m/s 751 mmHg 43%
18:00 +1°C° 0 mm 2 m/s 751 mmHg 47%
19:00 -1°C° 0 mm 2 m/s 751 mmHg 51%
20:00 -1°C° 0 mm 3 m/s 751 mmHg 52%
21:00 -1°C° 0 mm 3 m/s 751 mmHg 54%
22:00 -2°C° 0 mm 3 m/s 751 mmHg 55%
23:00 -3°C° 0 mm 4 m/s 751 mmHg 58%

11 Martie, Joi

Timp Temperatura Precipitaţii Vânt Presiune Umiditate
00:00 -3°C° 0 mm 4 m/s 751 mmHg 60%
01:00 -3°C° 0 mm 4 m/s 750 mmHg 63%
02:00 -2°C° 0 mm 4 m/s 749 mmHg 68%
03:00 -2°C° 0 mm 4 m/s 749 mmHg 73%
04:00 -2°C° 0 mm 5 m/s 748 mmHg 78%
05:00 -1°C° 0 mm 5 m/s 747 mmHg 79%
06:00 -2°C° 0 mm 6 m/s 747 mmHg 80%
07:00 -2°C° 0 mm 6 m/s 746 mmHg 80%
08:00 -1°C° 0.3 mm 6 m/s 745 mmHg 85%
09:00 -1°C° 0.3 mm 7 m/s 745 mmHg 90%
10:00 0°C° 0.3 mm 7 m/s 744 mmHg 95%
11:00 0°C° 0.9 mm 7 m/s 743 mmHg 94%
12:00 0°C° 0.9 mm 8 m/s 742 mmHg 94%
13:00 0°C° 0.9 mm 8 m/s 741 mmHg 93%
14:00 +1°C° 1.1 mm 8 m/s 740 mmHg 93%
15:00 +3°C° 1.1 mm 7 m/s 739 mmHg 93%
16:00 +3°C° 1.1 mm 7 m/s 739 mmHg 93%
17:00 +4°C° 1.8 mm 8 m/s 738 mmHg 92%
18:00 +4°C° 1.8 mm 8 m/s 738 mmHg 92%
19:00 +5°C° 1.8 mm 8 m/s 737 mmHg 91%
20:00 +5°C° 0.3 mm 8 m/s 737 mmHg 90%
21:00 +5°C° 0.3 mm 7 m/s 738 mmHg 89%
22:00 +5°C° 0.3 mm 6 m/s 738 mmHg 88%
23:00 +5°C° 0 mm 6 m/s 738 mmHg 86%

12 Martie, Vineri

Timp Temperatura Precipitaţii Vânt Presiune Umiditate
00:00 +4°C° 0 mm 6 m/s 738 mmHg 84%
01:00 +3°C° 0 mm 6 m/s 739 mmHg 83%
02:00 +3°C° 0 mm 6 m/s 739 mmHg 82%
03:00 +3°C° 0 mm 7 m/s 739 mmHg 82%
04:00 +3°C° 0 mm 7 m/s 739 mmHg 82%
05:00 +2°C° 0 mm 7 m/s 739 mmHg 80%
06:00 +1°C° 0 mm 8 m/s 739 mmHg 78%
07:00 +1°C° 0 mm 8 m/s 739 mmHg 77%
08:00 +1°C° 0 mm 9 m/s 740 mmHg 77%
09:00 +2°C° 0 mm 9 m/s 740 mmHg 77%
10:00 +2°C° 0 mm 10 m/s 741 mmHg 78%
11:00 +3°C° 0 mm 10 m/s 741 mmHg 70%
12:00 +5°C° 0 mm 10 m/s 742 mmHg 63%
13:00 +6°C° 0 mm 10 m/s 742 mmHg 56%
14:00 +6°C° 0.1 mm 9 m/s 743 mmHg 55%
15:00 +6°C° 0.1 mm 9 m/s 743 mmHg 54%
16:00 +6°C° 0.1 mm 8 m/s 743 mmHg 53%
17:00 +5°C° 0 mm 7 m/s 743 mmHg 58%
18:00 +4°C° 0 mm 6 m/s 744 mmHg 63%
19:00 +3°C° 0 mm 5 m/s 744 mmHg 68%
20:00 +3°C° 0 mm 5 m/s 744 mmHg 70%
21:00 +2°C° 0 mm 5 m/s 745 mmHg 72%
22:00 +2°C° 0 mm 5 m/s 745 mmHg 74%
23:00 +1°C° 0 mm 5 m/s 745 mmHg 76%

13 Martie, Sâmbătă

Timp Temperatura Precipitaţii Vânt Presiune Umiditate
00:00 +1°C° 0 mm 5 m/s 745 mmHg 78%
01:00 +1°C° 0 mm 4 m/s 744 mmHg 80%
02:00 0°C° 0 mm 4 m/s 744 mmHg 81%
03:00 0°C° 0 mm 4 m/s 744 mmHg 82%
04:00 -1°C° 0 mm 4 m/s 744 mmHg 83%
05:00 -1°C° 0 mm 4 m/s 744 mmHg 83%
06:00 0°C° 0 mm 4 m/s 744 mmHg 82%
07:00 0°C° 0 mm 4 m/s 744 mmHg 82%
08:00 +1°C° 0 mm 5 m/s 744 mmHg 76%
09:00 +3°C° 0 mm 5 m/s 744 mmHg 71%
10:00 +5°C° 0 mm 6 m/s 743 mmHg 65%
11:00 +7°C° 0 mm 6 m/s 743 mmHg 60%
12:00 +8°C° 0 mm 6 m/s 743 mmHg 55%
13:00 +9°C° 0 mm 6 m/s 742 mmHg 51%
14:00 +9°C° 0.1 mm 6 m/s 742 mmHg 53%
15:00 +9°C° 0.1 mm 5 m/s 742 mmHg 56%
16:00 +8°C° 0.1 mm 5 m/s 741 mmHg 59%
17:00 +7°C° 0.1 mm 4 m/s 742 mmHg 65%
18:00 +6°C° 0.1 mm 4 m/s 742 mmHg 70%
19:00 +5°C° 0.1 mm 3 m/s 742 mmHg 76%
20:00 +4°C° 0 mm 3 m/s 742 mmHg 79%
21:00 +4°C° 0 mm 3 m/s 742 mmHg 82%
22:00 +3°C° 0 mm 3 m/s 743 mmHg 86%
23:00 +3°C° 0 mm 3 m/s 743 mmHg 87%
Arată mai mult

Formular de consimțământ

Meteoprog și furnizorii noștri de servicii pot stoca și accesa date personale, precum cookies, identificatori de dispozitiv sau alte tehnologii similare pe dispozitivul dumneavoastră și procesa astfel de date pentru a personaliza conținutul și reclamele, dar și pentru a oferi caracteristici de social media și pentru a analiza traficul.

  • Stocarea și/sau accesarea informațiilor pe dispozitivul dumneavoastră

    Cookies, identificatori de dispozitiv sau alte informații pot fi stocate sau accesate pe dispozitiv în scopurile indicate mai sus.

  • Reclame și conținut personalizat, evaluarea reclamelor și a conținutului, informații despre audiențe și dezvoltarea produselor

    Reclamele și conținutul pot fi personalizate pe baza unui profil. Pot fi adăugate date suplimentare pentru a personaliza mai bine reclamele și conținutul. Performanța reclamelor și conținutului poate fi măsurată. Pot fi obținute informații despre utilizatorii care au văzut reclamele și conținutul. Aceste date pot fi utilizate pentru a dezvolta sau îmbunătăți experiența utilizatorilor, sistemele și software-ul.

Dând clic pe ‘Sunt de acord’, permiteți utilizarea cookie-urilor menționate, a identificatorilor de dispozitiv, balizelor web sau altor tehnologii similare. Setările pot fi modificate din browser-ul dispozitivului dumneavoastră.

În anumite scopuri, interesele legitime pot prima asupra consimțământului. Puteți citi mai multe informații în acest sens în Politica privind Confidențialitatea Datelor și Cookie.